Location: Hylvaty SDH
(49.9612°N, 16.4057°E)
Time: 01:42:48
(UTC+02:00)

Vanguard 1 Rocket - All Passes

Search period start: 02 October 2020 00:00
Search period end: 12 October 2020 00:00
Orbit: 655 x 4221 km, 34.3° (Epoch: 30 September)

Date Brightness Start Highest point End Pass type
(mag) Time Alt. Az. Time Alt. Az. Time Alt. Az.
02 Oct - 00:26:18 10° W 00:42:48 26° SW 01:01:12 10° S visible
02 Oct - 16:01:48 10° S 16:08:25 19° SE 16:17:53 10° E daylight
02 Oct - 18:21:58 10° SW 18:32:58 41° SSE 18:51:59 10° E daylight
02 Oct - 20:45:55 10° WSW 21:00:42 47° S 21:23:38 10° ESE visible
02 Oct - 23:12:44 10° W 23:29:39 34° SSW 23:50:41 10° SSE visible
03 Oct - 01:48:11 10° WSW 01:57:03 13° SW 02:06:12 10° SSW visible
03 Oct - 17:12:22 10° SSW 17:21:22 32° SSE 17:36:30 10° E daylight
03 Oct - 19:35:02 10° WSW 19:47:42 46° S 20:09:05 10° ESE visible
03 Oct - 22:00:23 10° W 22:16:16 40° SSW 22:38:31 10° SE visible
04 Oct - 00:30:14 10° W 00:44:33 21° SW 01:00:39 10° S visible
04 Oct - 16:03:42 10° S 16:10:30 22° SE 16:20:46 10° E daylight
04 Oct - 18:24:43 10° SW 18:35:19 42° SSE 18:54:00 10° ESE visible
04 Oct - 20:48:52 10° WSW 21:02:59 44° S 21:25:07 10° SE visible
04 Oct - 23:16:05 10° W 23:31:35 29° SW 23:51:01 10° SSE visible
05 Oct - 14:57:34 10° SE 15:00:14 11° SE 15:03:18 10° ESE daylight
05 Oct - 17:14:56 10° SW 17:23:40 35° SSE 17:38:44 10° E daylight
05 Oct - 19:37:57 10° WSW 19:50:06 45° S 20:10:48 10° ESE visible
05 Oct - 22:03:31 10° W 22:18:26 35° SSW 22:39:24 10° SSE visible
06 Oct - 00:35:07 10° WSW 00:46:19 16° SW 00:58:50 10° SSW visible
06 Oct - 16:05:55 10° SSW 16:12:43 25° SE 16:23:25 10° E daylight
06 Oct - 18:27:33 10° WSW 18:37:46 42° S 18:55:56 10° ESE visible
06 Oct - 20:51:54 10° WSW 21:05:20 40° SSW 21:26:23 10° SE visible
06 Oct - 23:19:50 10° W 23:33:35 24° SW 23:50:44 10° S visible
07 Oct - 14:58:22 10° SSE 15:02:22 14° SE 15:07:28 10° ESE daylight
07 Oct - 17:17:40 10° SW 17:26:06 36° SSE 17:40:55 10° ESE daylight
07 Oct - 19:40:56 10° WSW 19:52:34 42° S 20:12:22 10° SE visible
07 Oct - 22:06:52 10° W 22:20:38 30° SSW 22:39:51 10° SSE visible
08 Oct - 00:42:55 10° WSW 00:48:11 11° SW 00:53:45 10° SW visible
08 Oct - 16:08:22 10° SSW 16:15:05 27° SSE 16:25:56 10° E daylight
08 Oct - 18:30:30 10° WSW 18:40:18 41° S 18:57:47 10° ESE visible
08 Oct - 20:55:05 10° WSW 21:07:43 35° SSW 21:27:21 10° SE visible
08 Oct - 23:24:14 10° WSW 23:35:38 18° SW 23:49:30 10° S visible
09 Oct - 15:00:07 10° S 15:04:38 17° SE 15:10:46 10° ESE daylight
09 Oct - 17:20:30 10° SW 17:28:38 36° SSE 17:43:00 10° ESE daylight
09 Oct - 19:44:02 10° WSW 19:55:05 38° S 20:13:45 10° SE visible
09 Oct - 22:10:32 10° WSW 22:22:52 25° SSW 22:39:47 10° SSE visible
10 Oct - 16:11:01 10° SSW 16:17:34 28° SSE 16:28:20 10° ESE daylight
10 Oct - 18:33:31 10° WSW 18:42:54 39° S 18:59:29 10° ESE visible
10 Oct - 20:58:26 10° WSW 21:10:09 30° SSW 21:27:58 10° SSE visible
10 Oct - 23:30:14 10° WSW 23:37:44 13° SW 23:46:21 10° SSW visible
11 Oct - 15:02:17 10° S 15:07:02 19° SE 15:13:44 10° ESE daylight
11 Oct - 17:23:27 10° SW 17:31:15 36° S 17:45:01 10° ESE daylight
11 Oct - 19:47:14 10° WSW 19:57:39 34° SSW 20:14:53 10° SE visible
11 Oct - 22:14:43 10° WSW 22:25:11 19° SW 22:38:55 10° S visible
